METEOSAT-12 (MTG-I1)

Last updated on Mon Dec 15 2025 00:02:29 GMT+0000 (Coordinated Universal Time)

1 54743U 22170C 25348.27351679 .00000010 00000+0 00000+0 0 9996 2 54743 0.6886 23.8629 0001632 238.3539 279.1752 1.00269445 11127
UTC large
Height (km)
Speed (km/s)
/
Latitude / Longitude
Inclination (degrees)
Orbital Period (minutes)
Azimuth
Elevation
Range (km)
Doppler Factor

Next 0 passes for location: London (51.5072 / 0.1276)

Sorry there are no passes over London.